GFSSGP_925_spd_132.txt.gz
Wind_Speed
15 14 15 3 3 4 4 6 5 6 7 4 7 6 12 4 4 4 2 31 34 37 34 31 28 27 27 27 25 23 22 20 20 21 22 22 23 23 21 19 17 16 15 14 14 14 14 15 14
13 12 3 2 4 1 6 6 9 4 5 14 9 11 8 10 5 5 18 28 40 39 35 32 29 28 27 27 26 24 23 21 20 21 22 22 21 21 19 18 16 14 13 12 13 13 13 13 12
10 8 3 4 4 6 6 4 4 5 4 4 8 0 7 6 5 15 18 40 44 38 35 33 29 28 27 26 26 25 24 22 21 21 21 21 20 19 18 16 14 12 12 12 12 11 11 11 10
4 4 3 2 7 7 9 2 10 13 13 7 5 3 3 12 4 14 31 46 45 41 35 32 30 28 27 27 27 25 25 24 22 21 21 21 20 19 17 14 12 11 12 12 11 10 9 8 7
3 3 1 3 8 6 11 2 8 13 10 4 8 7 5 1 8 18 39 48 51 43 37 34 33 30 28 28 28 27 25 24 23 22 22 21 20 18 15 13 11 10 10 11 10 9 8 7 6
1 2 2 6 10 6 8 7 6 12 17 6 2 7 4 3 16 30 36 38 38 45 40 34 32 31 30 29 29 27 25 24 22 21 21 21 20 18 15 13 10 9 9 9 9 7 6 6 5
5 4 6 6 7 7 7 4 6 6 8 5 3 8 5 3 9 26 30 33 37 40 38 34 31 29 29 30 28 27 24 23 22 19 18 18 18 17 15 12 10 8 8 8 7 7 6 5 5
5 3 4 6 8 6 7 3 6 4 3 4 4 5 5 6 22 23 23 27 35 36 36 33 30 29 29 30 28 27 25 24 22 20 18 17 17 17 15 12 10 8 7 7 7 7 7 6 6
4 3 7 7 6 2 12 6 6 5 3 6 7 7 9 30 32 25 28 25 29 31 36 35 32 30 30 29 29 28 27 24 23 20 18 17 18 17 15 13 10 8 7 6 6 7 7 7 8
5 6 8 5 6 2 6 4 6 5 1 4 11 15 14 17 27 22 19 18 22 21 29 32 30 30 30 29 29 28 26 24 23 22 20 18 18 18 16 13 11 9 7 7 7 8 8 9 9
5 8 3 3 9 9 6 8 4 3 2 2 6 9 10 10 12 13 11 29 28 30 32 27 25 24 26 26 24 26 26 25 24 23 21 19 18 17 16 13 13 11 10 10 10 10 10 9 9
5 4 5 3 5 4 5 4 5 4 3 6 11 10 8 10 11 16 17 18 3 10 17 33 27 25 26 27 28 27 27 25 24 23 21 20 20 19 16 15 14 12 11 12 13 13 11 10 9
8 4 2 7 12 6 5 4 3 5 1 4 9 12 12 8 11 3 14 19 17 12 6 14 25 27 24 24 24 25 24 24 24 22 21 21 21 21 18 15 16 14 13 12 12 13 12 13 13
5 13 10 10 12 5 8 5 5 6 6 6 6 10 12 12 9 18 11 4 10 16 9 4 8 23 26 23 25 26 25 25 24 23 23 21 22 21 19 16 20 18 14 14 16 15 14 14 16
14 5 8 16 11 7 5 9 6 2 6 8 8 6 10 12 16 16 12 22 8 6 17 4 10 9 21 24 24 27 26 26 25 25 24 24 23 24 22 17 19 19 15 15 16 15 16 11 6
11 4 14 11 10 6 9 20 6 4 5 10 5 3 5 8 11 7 19 20 17 29 24 13 2 9 10 18 26 25 26 26 25 26 26 25 23 22 24 22 17 21 18 17 16 13 16 16 14
5 12 6 5 8 4 10 13 5 5 2 9 7 5 5 3 8 18 22 30 31 32 24 25 19 14 12 11 16 28 28 29 29 30 28 27 25 23 28 26 17 18 13 16 16 14 19 16 19
4 5 3 6 5 7 6 4 4 4 3 7 9 8 8 6 6 10 29 34 34 33 43 35 40 36 26 22 21 18 26 31 34 36 31 31 32 30 29 27 25 21 17 15 14 16 17 17 14
2 6 8 5 8 6 8 6 7 5 7 6 9 8 7 7 8 6 9 30 26 29 30 42 49 54 36 33 33 25 30 29 27 30 27 29 31 35 34 34 29 22 20 20 19 16 14 13 11
12 6 5 4 6 12 7 10 7 7 6 6 9 8 8 7 7 5 9 17 28 29 30 36 52 53 40 32 28 23 26 36 33 29 25 26 30 32 37 34 28 23 20 18 15 16 15 17 14
16 13 4 4 5 1 2 6 2 6 6 11 13 13 7 11 13 8 7 18 22 26 35 41 44 51 40 42 28 26 35 39 35 33 30 31 30 30 33 29 25 21 20 22 20 21 24 17 14
16 8 8 4 5 4 2 7 6 6 17 18 16 15 12 11 8 5 7 17 26 35 35 37 33 42 46 32 38 27 25 28 33 26 34 36 31 30 32 30 23 21 19 21 23 21 23 20 16
9 8 8 7 5 4 5 1 7 4 17 21 20 21 16 10 9 9 8 10 26 34 39 42 41 41 44 37 37 36 35 38 31 28 26 38 35 32 31 29 24 21 21 23 22 19 28 23 14
6 6 4 2 5 5 6 4 16 13 24 18 9 14 12 10 8 7 10 3 4 25 34 41 42 38 31 38 35 36 36 25 14 9 16 21 26 29 27 28 26 24 24 26 24 22 24 21 17
14 7 2 1 2 12 8 6 20 9 19 22 17 13 12 9 8 7 5 8 5 16 20 25 27 26 18 18 20 16 10 5 2 3 8 12 16 22 25 27 25 26 26 24 23 22 20 17 17
13 10 5 5 5 6 6 12 8 12 23 14 14 11 9 9 8 10 9 9 17 22 24 23 21 19 15 12 7 5 4 5 5 2 1 5 14 20 22 24 24 23 22 25 22 19 19 19 18
7 7 8 5 0 4 5 9 15 17 14 6 10 10 9 8 10 11 7 18 23 27 29 30 31 27 23 21 20 20 22 15 16 18 13 11 12 8 10 16 19 20 21 21 21 20 20 18 17
9 8 4 3 6 5 2 5 2 16 11 8 10 10 12 15 16 13 13 20 24 29 31 34 33 33 29 26 25 25 24 20 18 15 16 13 11 13 16 10 9 14 15 13 15 17 18 19 21
5 6 5 6 5 5 1 6 4 13 25 15 10 15 15 13 12 14 13 20 25 30 34 34 31 28 27 24 23 22 19 18 17 18 15 14 12 12 13 12 11 8 7 9 11 15 19 21 23
10 9 7 5 3 2 4 6 14 22 6 15 17 20 17 14 14 15 13 20 22 23 31 32 31 30 26 22 22 21 20 19 19 18 16 15 14 13 14 15 15 13 14 11 13 12 13 14 14

GFSSGP_925_spd_138.txt.gz
Wind_Speed
14 12 10 3 3 4 3 4 2 3 6 3 5 3 5 1 4 4 0 26 36 37 34 32 29 28 26 24 23 24 25 27 27 25 25 27 26 24 22 19 17 15 15 14 15 15 15 15 14
8 9 2 2 4 3 5 4 4 2 2 8 2 6 2 4 4 6 11 18 37 39 35 33 30 28 26 24 22 21 22 24 25 25 25 25 24 21 18 16 14 14 14 14 15 14 14 13 12
6 3 3 3 3 6 5 4 1 6 9 4 5 2 3 2 3 13 7 26 36 39 35 32 30 28 27 24 22 21 21 22 23 24 24 23 21 19 16 14 13 12 13 13 15 14 12 11 10
2 4 4 4 7 4 5 5 2 6 5 3 1 9 4 1 4 4 23 28 36 37 34 31 29 27 26 25 22 21 20 20 21 22 23 22 19 16 14 13 11 10 11 12 14 14 12 10 8
3 3 2 3 7 3 4 4 1 4 4 5 2 6 3 5 6 17 36 32 37 35 32 30 28 27 24 24 22 21 20 19 19 20 21 19 18 16 13 10 9 9 9 10 11 12 11 10 9
3 3 2 5 7 5 3 5 2 3 5 8 0 5 2 6 11 17 34 32 37 36 32 28 26 24 23 22 20 19 18 18 17 17 18 17 17 14 11 9 8 9 9 8 8 9 9 8 8
6 5 5 5 10 4 5 4 2 3 5 3 2 2 0 10 12 18 25 25 33 31 29 26 22 21 21 20 20 19 17 16 15 16 15 15 14 13 11 9 8 7 7 7 6 6 7 7 7
5 4 6 6 6 6 4 4 1 3 5 2 3 1 2 4 19 22 23 24 27 27 24 24 21 20 19 19 18 18 17 15 13 12 13 13 12 11 9 8 7 6 6 7 6 6 5 5 5
4 3 5 8 8 3 3 3 1 2 3 4 8 8 5 18 22 25 24 20 20 21 18 17 15 15 18 17 16 16 15 15 13 12 11 12 13 13 11 10 8 7 6 6 6 6 6 6 7
5 5 10 6 5 5 3 1 2 5 8 4 7 11 15 19 15 16 19 17 17 16 16 18 17 15 16 16 15 15 15 15 14 13 12 12 12 13 12 11 10 9 8 6 6 6 7 8 8
5 6 6 5 6 5 2 3 0 2 1 2 5 7 8 17 13 12 12 21 23 21 16 16 19 19 21 22 20 19 17 16 15 15 14 13 13 14 14 13 12 11 10 9 8 8 9 10 11
4 6 6 7 4 3 3 3 2 4 5 5 7 9 9 12 8 10 13 17 23 21 20 18 18 19 20 21 24 23 22 20 20 19 18 17 16 16 16 16 15 13 13 12 11 11 11 12 12
6 4 7 5 7 4 4 2 2 1 4 7 8 7 7 9 11 13 19 18 21 23 18 17 18 18 18 20 23 22 24 24 22 20 19 19 19 19 18 18 17 16 14 14 13 11 10 11 12
7 8 5 7 6 1 4 3 4 3 3 7 8 8 6 7 7 12 12 18 22 21 20 17 17 16 17 20 20 21 21 21 20 20 21 21 21 20 19 19 18 17 16 15 14 14 13 14 15
5 5 6 12 5 4 7 9 7 6 3 7 6 7 9 9 10 13 22 21 22 21 22 22 22 22 22 22 21 21 20 20 22 22 21 21 21 21 20 19 19 17 16 16 16 15 16 16 14
7 1 5 5 11 6 8 11 6 8 10 8 8 6 6 9 13 19 19 22 24 29 26 24 28 27 26 27 27 26 21 24 25 24 21 22 23 23 21 22 21 19 18 16 17 16 17 17 16
4 5 5 2 10 9 11 3 10 9 9 8 8 8 7 6 8 16 19 20 27 25 26 28 25 32 23 33 31 32 26 30 33 30 23 21 23 25 22 21 22 20 21 21 18 18 17 17 16
5 7 3 6 6 11 6 4 1 3 8 11 9 8 8 8 11 12 12 17 23 27 23 25 32 29 31 28 28 33 30 31 28 28 19 18 20 24 18 19 23 21 22 23 20 20 18 18 17
6 9 8 6 5 7 9 6 9 9 6 8 8 8 8 9 9 14 7 11 13 19 25 30 27 25 25 23 28 30 21 25 24 24 17 18 20 20 19 21 22 21 22 25 21 17 18 19 19
4 8 7 3 5 3 5 6 9 9 6 9 12 10 10 5 7 10 10 15 16 17 24 29 33 32 34 33 32 18 19 17 18 19 20 18 20 21 26 26 25 25 27 28 24 20 20 20 19
3 6 6 6 4 1 3 3 4 5 5 5 6 7 5 9 9 8 9 19 19 22 25 32 36 35 32 31 26 22 13 13 11 15 14 15 17 17 20 20 18 22 24 31 28 24 25 22 19
11 8 4 8 5 4 2 4 4 6 8 7 9 8 10 10 7 8 9 16 19 28 25 30 33 29 28 24 27 23 18 15 10 10 11 13 15 17 21 21 19 22 21 24 25 24 26 26 22
5 11 5 3 5 4 1 2 6 1 4 8 11 13 12 15 14 15 13 24 32 29 24 26 29 30 25 21 19 22 20 11 11 13 15 15 14 14 17 16 16 17 23 27 27 24 25 28 25
12 9 5 5 3 1 5 5 5 3 7 4 6 11 14 13 16 16 26 32 30 29 25 20 23 25 26 22 14 15 7 9 14 17 19 21 17 14 16 17 18 21 23 30 32 27 27 26 23
6 15 3 2 1 5 6 4 8 6 7 7 9 12 11 8 11 15 15 14 23 24 24 22 17 10 12 11 11 10 8 10 9 8 8 13 14 13 16 17 15 16 28 24 25 26 27 29 28
11 7 5 7 5 5 6 4 5 4 5 7 11 14 8 9 9 13 13 9 9 15 14 11 12 10 10 10 9 8 9 12 14 15 17 17 16 17 15 15 14 15 15 15 17 19 24 24 23
10 8 6 7 2 5 4 5 5 5 6 9 9 1 7 5 5 6 9 13 13 14 15 19 24 24 23 27 27 26 27 26 22 21 19 18 18 18 18 17 18 17 17 14 14 13 12 13 14
13 9 2 3 4 4 1 2 4 8 12 13 8 5 6 12 12 11 11 18 22 27 29 33 36 37 35 33 31 28 27 22 20 18 17 16 15 17 18 18 18 17 17 16 14 10 6 6 7
9 9 4 6 3 5 4 4 5 6 10 11 3 7 10 13 14 12 12 21 27 30 32 30 38 40 35 32 28 23 19 20 19 16 14 14 13 15 16 16 16 15 15 14 13 12 11 9 8
6 8 6 5 1 3 4 4 2 6 8 3 9 9 8 14 15 15 13 20 24 26 25 35 36 36 31 25 24 21 20 18 18 16 14 12 13 13 14 14 15 16 16 15 14 12 11 11 12

GFSSGP_925_spd_141.txt.gz
Wind_Speed
9 9 5 1 4 3 4 4 3 2 3 2 3 3 3 6 4 3 3 13 26 31 27 31 31 29 28 26 27 29 29 27 25 23 24 25 24 21 19 17 15 14 14 14 15 17 18 18 16
3 4 1 2 4 7 5 3 7 2 5 10 4 4 1 1 3 6 15 15 28 32 29 26 30 29 28 27 26 26 27 25 24 22 24 24 22 20 18 15 14 13 13 13 13 13 14 15 14
2 2 2 3 4 11 5 5 3 7 10 3 1 3 0 3 3 11 10 26 28 30 28 27 29 28 27 26 25 24 24 24 22 22 23 22 21 18 15 14 13 13 13 13 12 12 12 13 11
4 3 2 6 13 8 4 7 2 7 3 4 7 4 5 3 1 7 23 30 31 28 26 29 28 26 25 24 23 23 22 21 21 22 22 21 18 15 14 13 12 12 12 12 12 11 10 9 9
3 1 6 7 17 3 7 6 1 6 5 10 7 1 3 4 4 15 26 28 31 27 25 27 27 26 25 22 21 21 20 20 20 21 21 19 16 14 13 11 10 11 11 11 12 11 9 8 7
4 2 8 18 16 8 6 5 4 5 5 7 4 3 4 1 7 17 22 26 28 30 26 26 27 25 24 23 21 20 20 19 19 19 19 17 15 13 11 9 9 9 9 9 10 11 9 8 7
10 8 19 13 21 11 7 6 7 5 6 4 6 3 4 7 10 17 19 21 24 27 25 23 23 24 22 21 20 20 19 19 18 17 16 16 14 12 9 7 7 8 9 9 9 8 8 8 8
4 6 15 13 15 17 7 7 3 1 1 2 5 2 3 6 13 18 20 20 21 22 24 22 21 20 20 21 20 19 18 17 17 16 15 15 14 12 9 8 8 8 8 8 8 8 7 7 7
3 8 15 19 18 11 6 9 3 1 1 4 4 3 6 13 16 20 22 22 21 20 21 21 20 18 19 18 20 19 18 17 16 16 16 15 12 11 10 9 7 6 7 8 8 8 8 8 7
11 14 16 5 7 13 8 3 1 2 2 3 5 7 10 12 14 19 21 23 25 23 21 21 20 19 18 17 19 19 19 18 17 17 17 14 14 13 12 10 9 8 7 7 7 8 8 7 6
9 17 10 8 9 6 8 9 2 1 2 2 5 9 10 12 12 14 17 19 24 25 23 22 21 20 21 20 19 18 18 18 18 18 18 16 14 14 14 14 13 11 10 7 7 7 7 7 7
10 13 12 10 10 10 5 3 8 6 3 3 10 11 10 12 12 14 16 18 21 22 23 23 21 20 19 19 19 18 18 18 17 16 17 16 15 16 16 14 14 12 9 9 10 8 9 10 10
17 7 15 13 9 8 5 10 5 4 7 8 13 10 10 10 12 14 17 18 19 19 19 22 22 21 19 20 18 17 17 17 15 16 19 18 17 17 16 16 13 12 11 10 9 8 9 9 9
15 15 10 16 10 7 11 6 4 7 7 8 14 13 11 11 13 13 15 19 21 21 20 20 21 22 21 18 19 19 20 19 20 20 20 21 19 18 18 18 17 16 14 12 11 10 10 10 11
7 15 18 10 18 12 6 12 11 6 10 10 10 11 11 12 13 13 15 17 20 22 23 25 24 25 24 23 24 23 20 20 23 23 22 23 22 21 20 17 17 15 13 13 12 13 12 12 11
13 8 12 18 12 8 16 20 15 12 10 12 11 10 11 13 15 14 13 12 14 16 22 25 26 27 29 30 30 29 25 22 23 22 22 23 23 21 19 18 18 16 14 11 11 10 11 13 13
18 15 17 8 22 7 16 9 13 16 16 13 11 10 10 11 12 16 17 16 15 15 16 19 21 24 28 29 30 31 28 25 24 21 18 18 19 19 19 17 16 17 16 15 12 12 12 14 14
17 20 16 14 9 24 17 9 8 15 19 15 12 11 9 10 12 13 15 17 18 18 18 16 17 17 17 16 18 18 18 19 21 19 20 19 19 18 18 18 18 17 18 18 13 13 13 15 16
13 18 13 17 9 17 18 15 10 13 14 16 12 11 11 12 9 8 10 15 17 20 23 21 19 19 17 14 14 17 6 10 12 16 19 17 17 18 17 19 18 18 20 19 13 11 16 14 17
13 17 15 9 13 10 16 18 17 14 13 14 16 15 15 14 11 10 12 13 15 18 25 25 22 20 19 16 13 7 2 5 14 16 20 19 20 19 21 23 22 20 21 20 17 11 12 17 22
7 16 14 13 15 4 12 11 18 14 11 10 15 14 14 14 14 11 11 16 14 17 21 24 26 23 20 17 14 10 7 5 8 12 11 13 14 17 20 21 24 22 20 20 15 16 15 16 15
9 7 13 13 17 7 8 6 9 14 14 14 14 16 16 16 15 14 12 15 18 23 19 18 19 20 20 18 11 9 12 13 7 3 1 6 9 13 14 15 16 20 18 17 20 19 18 20 18
12 10 7 12 13 8 9 4 4 5 12 14 15 19 20 18 18 18 17 20 20 18 17 11 13 13 13 14 14 13 11 11 6 3 5 7 9 7 6 10 13 19 20 20 22 22 18 18 18
11 11 5 6 6 8 11 9 6 8 11 10 13 16 18 18 20 20 25 25 23 20 14 8 3 6 10 12 13 15 15 11 6 2 2 5 4 2 5 5 6 10 15 19 21 21 21 22 27
17 16 7 7 7 4 10 8 3 8 7 9 9 12 15 15 18 19 19 21 25 20 10 4 5 6 8 11 10 9 9 8 7 6 8 10 8 10 9 7 7 6 7 11 13 15 19 21 26
24 22 7 8 8 8 7 8 3 5 3 6 10 13 13 14 14 16 15 19 23 15 2 9 9 11 12 12 12 12 12 12 13 12 11 13 13 11 11 13 13 11 10 7 9 13 15 18 23
19 17 5 7 5 9 5 2 4 7 7 6 10 7 5 11 10 10 9 9 8 10 11 16 17 18 19 22 24 22 21 17 16 13 11 14 14 11 12 13 12 11 11 12 10 7 6 7 9
20 14 6 3 9 8 7 6 6 4 7 11 9 5 7 6 7 9 9 13 16 18 21 23 25 26 23 24 23 23 21 17 17 17 19 17 13 12 12 11 11 11 11 10 7 6 5 4 4
18 14 2 5 1 4 7 4 1 3 8 10 3 9 10 12 13 15 15 23 26 27 28 28 30 24 21 18 24 26 21 20 20 20 16 14 12 13 11 12 11 11 11 11 10 9 9 10 9
18 16 4 4 4 3 3 4 2 6 7 2 9 12 17 18 18 18 20 27 28 27 25 24 25 23 17 16 25 21 20 20 19 20 14 13 13 12 13 13 13 13 12 12 12 12 11 10 9

GFSSGP_925_spd_147.txt.gz
Wind_Speed
11 13 15 13 8 8 18 20 20 3 3 5 3 6 13 18 15 5 18 12 24 27 25 24 21 20 25 27 26 23 24 23 21 20 23 21 19 17 15 13 11 11 11 11 11 12 11 10 9
12 14 14 9 10 15 15 20 15 9 10 3 4 4 3 16 13 15 13 23 26 27 25 22 22 21 24 28 26 25 24 22 20 20 22 20 17 15 13 11 10 10 11 11 11 10 8 7 6
11 13 9 11 16 18 18 22 11 12 5 7 6 6 5 10 9 8 23 25 26 26 25 24 24 22 23 26 25 25 23 21 20 20 21 19 16 14 13 11 10 10 11 11 10 9 7 6 5
11 12 10 16 23 25 27 7 11 14 11 7 5 10 8 4 5 11 23 27 26 27 24 26 25 23 25 26 26 24 23 21 19 20 20 19 16 13 11 11 10 9 10 10 10 9 8 6 5
20 10 13 19 25 26 23 4 2 8 16 13 8 11 10 10 9 21 25 26 26 27 24 27 26 24 25 26 25 23 22 20 19 20 20 18 15 12 10 9 9 9 9 9 8 7 8 6 4
11 14 14 22 25 27 22 8 6 16 10 7 9 10 8 9 18 23 24 24 25 25 25 24 26 25 24 25 25 23 22 20 19 21 20 18 14 12 10 9 8 8 7 7 8 7 6 6 6
20 17 23 24 25 25 27 13 16 15 7 11 6 6 8 12 20 23 24 24 25 24 26 23 22 23 23 23 22 22 22 20 20 21 19 17 14 12 10 7 7 7 7 6 6 7 7 8 8
17 17 27 26 22 27 24 20 14 18 13 11 1 3 13 12 20 23 25 25 25 25 24 24 23 21 19 19 22 22 21 20 20 20 19 16 14 11 9 7 7 8 8 7 7 8 8 9 10
23 17 23 30 27 22 20 17 18 14 14 7 5 6 17 13 17 23 25 25 25 25 24 26 24 24 21 19 20 22 21 21 21 20 18 16 12 11 9 8 12 8 9 9 9 9 9 10 11
21 21 30 23 22 22 19 21 19 16 13 10 10 9 11 14 15 19 22 24 25 25 25 25 25 23 22 19 18 17 16 16 16 16 17 15 13 12 11 12 11 10 9 9 9 10 10 11 10
28 25 23 24 22 22 19 16 14 19 19 15 17 15 11 14 17 17 19 23 24 25 25 25 24 24 22 20 19 17 17 16 16 16 16 16 14 13 14 10 10 10 9 8 11 9 9 9 11
25 28 26 21 17 11 15 12 21 16 16 12 6 19 12 12 15 17 20 22 24 24 23 23 24 24 22 19 19 18 17 17 16 17 17 16 15 14 13 13 11 12 11 9 10 9 10 9 10
31 23 25 26 15 13 14 17 17 15 18 9 6 8 12 11 12 16 20 21 23 23 23 23 23 22 21 18 18 18 17 17 15 16 17 16 15 14 14 14 14 12 12 12 10 11 10 11 11
21 25 20 27 17 17 22 20 17 18 14 9 10 12 13 12 11 12 16 18 22 22 22 21 21 20 20 19 16 16 16 15 15 15 16 17 14 13 12 13 14 14 14 13 12 12 12 12 12
25 24 25 21 22 18 18 21 24 18 14 15 16 14 11 12 13 13 15 17 18 20 21 20 20 20 19 18 15 15 15 15 15 15 15 16 16 10 12 13 14 14 14 14 13 12 12 13 13
21 19 23 25 24 23 21 24 23 21 18 17 19 15 11 11 14 14 15 16 17 16 19 19 20 20 19 18 16 15 14 14 13 13 13 15 16 14 11 14 15 15 14 14 14 13 13 14 14
20 25 25 28 25 20 23 17 23 20 20 19 18 17 14 12 11 13 14 17 14 17 19 20 19 18 19 17 15 14 13 12 13 8 10 13 18 19 20 16 17 14 15 15 13 14 13 13 14
29 32 25 26 24 26 22 19 17 21 21 20 19 18 16 15 12 15 15 14 15 16 17 20 20 18 16 16 15 14 14 12 13 14 14 15 16 18 14 16 17 15 17 16 13 14 13 14 15
23 24 24 24 21 24 24 21 19 22 19 20 19 18 18 16 15 16 15 15 13 15 15 14 17 18 17 17 17 16 15 14 16 16 17 14 17 15 16 15 16 18 20 17 12 15 15 15 15
26 24 27 21 18 21 22 22 17 14 18 20 20 19 18 17 16 16 16 15 13 12 13 15 14 14 16 14 14 13 14 16 17 16 18 17 19 17 18 18 17 21 20 17 14 14 14 16 15
27 24 26 22 17 17 21 20 27 19 18 22 22 19 18 18 17 16 15 14 14 12 12 13 14 15 15 15 14 12 10 10 12 15 16 17 19 18 17 17 19 17 18 14 14 15 17 17 18
27 18 21 22 18 15 25 14 23 22 20 22 24 23 21 20 16 14 14 16 14 13 11 10 11 12 13 14 17 14 13 14 15 17 12 12 17 15 16 18 16 17 15 14 13 15 18 18 19
21 18 21 21 19 20 20 17 24 20 20 24 23 23 22 19 18 17 16 18 16 13 10 12 9 9 10 11 14 13 17 16 17 8 8 5 7 6 12 13 11 14 10 12 15 15 18 19 19
22 25 17 15 16 17 24 19 17 26 27 23 21 19 18 18 17 16 16 13 13 13 15 11 9 6 7 10 10 13 10 14 5 6 3 6 6 2 2 5 8 7 8 11 13 17 17 17 19
22 23 16 16 15 16 18 19 7 22 24 26 24 23 20 18 17 15 16 15 18 17 11 14 9 6 5 6 8 8 9 8 4 4 3 2 5 5 7 6 7 7 10 9 11 12 12 13 17
27 25 16 28 19 15 21 13 9 11 15 19 21 20 20 18 16 16 16 16 17 16 15 10 9 7 6 4 4 4 5 7 10 10 9 8 5 4 6 8 8 8 8 9 10 11 10 13 11
29 24 23 16 16 15 18 8 14 16 12 12 14 13 15 16 15 15 13 13 11 12 6 10 15 15 13 11 12 14 14 14 12 9 7 6 4 3 7 8 9 10 11 12 14 14 13 13 15
23 25 12 10 19 15 15 15 14 16 16 15 14 11 13 12 10 8 10 10 10 19 18 15 17 18 14 15 16 16 16 14 12 10 9 7 5 7 7 7 7 9 10 12 14 15 15 16 16
16 16 12 7 17 11 14 13 20 17 17 13 13 14 17 14 14 14 13 16 16 15 18 20 22 19 18 18 18 17 15 13 12 10 8 8 8 10 9 9 8 9 11 12 13 14 16 17 18
20 23 16 8 9 11 12 9 17 14 12 15 17 17 13 14 15 15 16 20 22 24 23 22 22 20 19 17 17 16 14 11 10 8 8 8 9 9 10 10 10 10 12 12 13 15 16 18 18